Time,TemperatureF,DewpointF,PressureIn,WindDirection,WindDirectionDegrees,WindSpeedMPH,WindSpeedGustMPH,Humidity,HourlyPrecipIn,Conditions,Clouds,dailyrainin,SoftwareType,DateUTC
2013-07-08 00:01:00,73.0,72.1,30.12,South,180,0.0,0.0,97,0.00,RA,,0.00,WeatherDisplay:10.37,2013-07-08 04:01:00,
2013-07-08 00:02:00,73.0,72.1,30.12,South,180,0.0,0.0,97,0.00,RA,,0.00,WeatherDisplay:10.37,2013-07-08 04:02:00,
2013-07-08 00:04:00,73.0,72.1,30.12,South,180,0.0,0.0,97,0.00,RA,,0.00,WeatherDisplay:10.37,2013-07-08 04:04:00,
2013-07-08 00:09:00,72.9,72.0,30.12,South,180,0.0,0.0,97,0.00,RA,,0.00,WeatherDisplay:10.37,2013-07-08 04:09:00,
2013-07-08 00:14:00,72.9,72.0,30.12,South,180,0.0,0.0,97,0.00,CLR,,0.00,WeatherDisplay:10.37,2013-07-08 04:14:00,
2013-07-08 00:19:00,72.9,72.0,30.12,South,180,0.0,0.0,97,0.00,CLR,,0.00,WeatherDisplay:10.37,2013-07-08 04:19:00,
2013-07-08 00:24:00,72.7,71.8,30.12,South,180,0.0,0.0,97,0.00,CLR,,0.00,WeatherDisplay:10.37,2013-07-08 04:24:00,
2013-07-08 00:29:00,72.9,72.0,30.12,South,180,0.0,0.0,97,0.00,CLR,,0.00,WeatherDisplay:10.37,2013-07-08 04:29:00,
2013-07-08 00:34:00,72.9,72.0,30.12,South,180,0.0,0.0,97,0.00,CLR,,0.00,WeatherDisplay:10.37,2013-07-08 04:34:00,
2013-07-08 00:39:00,72.9,72.0,30.12,South,180,0.0,0.0,97,0.00,CLR,,0.00,WeatherDisplay:10.37,2013-07-08 04:39:00,
2013-07-08 00:44:00,72.7,71.8,30.12,South,180,0.0,0.0,97,0.00,CLR,,0.00,WeatherDisplay:10.37,2013-07-08 04:44:00,
2013-07-08 00:49:00,72.7,71.8,30.12,South,180,0.0,0.0,97,0.00,CLR,,0.00,WeatherDisplay:10.37,2013-07-08 04:49:00,
2013-07-08 00:54:00,72.9,72.0,30.12,South,180,0.0,0.0,97,0.00,CLR,,0.00,WeatherDisplay:10.37,2013-07-08 04:54:00,
2013-07-08 00:59:00,72.9,72.0,30.12,South,180,0.0,0.0,97,0.00,CLR,,0.00,WeatherDisplay:10.37,2013-07-08 04:59:00,
2013-07-08 01:04:00,72.9,72.0,30.12,South,180,0.0,0.0,97,0.00,CLR,,0.00,WeatherDisplay:10.37,2013-07-08 05:04:00,
2013-07-08 01:09:00,72.9,72.0,30.12,South,180,0.0,0.0,97,0.00,CLR,,0.00,WeatherDisplay:10.37,2013-07-08 05:09:00,
2013-07-08 01:14:00,72.9,72.3,30.12,South,180,0.0,0.0,98,0.00,CLR,,0.00,WeatherDisplay:10.37,2013-07-08 05:14:00,
2013-07-08 01:19:00,72.9,72.0,30.12,South,180,0.0,0.0,97,0.00,CLR,,0.00,WeatherDisplay:10.37,2013-07-08 05:19:00,
2013-07-08 01:24:00,72.9,72.3,30.12,South,180,0.0,0.0,98,0.00,CLR,,0.00,WeatherDisplay:10.37,2013-07-08 05:24:00,
2013-07-08 01:29:00,72.9,72.3,30.12,South,180,0.0,0.0,98,0.00,CLR,,0.00,WeatherDisplay:10.37,2013-07-08 05:29:00,
2013-07-08 01:34:00,72.9,72.3,30.12,South,180,0.0,0.0,98,0.00,CLR,,0.00,WeatherDisplay:10.37,2013-07-08 05:34:00,
2013-07-08 01:39:00,72.9,72.3,30.12,South,180,0.0,0.0,98,0.00,CLR,,0.00,WeatherDisplay:10.37,2013-07-08 05:39:00,
2013-07-08 01:44:00,72.9,72.3,30.12,South,180,0.0,0.0,98,0.00,CLR,,0.00,WeatherDisplay:10.37,2013-07-08 05:44:00,
2013-07-08 01:49:00,72.9,72.3,30.12,South,180,0.0,0.0,98,0.00,CLR,,0.00,WeatherDisplay:10.37,2013-07-08 05:49:00,
2013-07-08 01:54:00,72.7,72.1,30.12,South,180,0.0,0.0,98,0.00,CLR,,0.00,WeatherDisplay:10.37,2013-07-08 05:54:00,
2013-07-08 01:59:00,72.7,72.1,30.12,South,180,0.0,0.0,98,0.00,CLR,,0.00,WeatherDisplay:10.37,2013-07-08 05:59:00,
2013-07-08 02:04:00,72.7,72.1,30.12,South,180,0.0,0.0,98,0.00,CLR,,0.00,WeatherDisplay:10.37,2013-07-08 06:04:00,
2013-07-08 02:09:00,72.7,72.1,30.12,South,180,0.0,0.0,98,0.00,CLR,,0.00,WeatherDisplay:10.37,2013-07-08 06:09:00,
2013-07-08 02:14:00,72.5,71.9,30.12,South,180,0.0,0.0,98,0.00,CLR,,0.00,WeatherDisplay:10.37,2013-07-08 06:14:00,
2013-07-08 02:19:00,72.5,71.9,30.12,South,180,0.0,0.0,98,0.00,CLR,,0.00,WeatherDisplay:10.37,2013-07-08 06:19:00,
2013-07-08 02:24:00,72.5,71.9,30.12,South,180,0.0,0.0,98,0.00,CLR,,0.00,WeatherDisplay:10.37,2013-07-08 06:24:00,
2013-07-08 02:29:00,72.7,72.1,30.12,South,180,0.0,0.0,98,0.00,CLR,,0.00,WeatherDisplay:10.37,2013-07-08 06:29:00,
2013-07-08 02:34:00,72.7,72.1,30.12,South,180,0.0,0.0,98,0.00,CLR,,0.00,WeatherDisplay:10.37,2013-07-08 06:34:00,
2013-07-08 02:39:00,72.7,72.1,30.12,South,180,0.0,0.0,98,0.00,CLR,,0.00,WeatherDisplay:10.37,2013-07-08 06:39:00,
2013-07-08 02:44:00,72.9,72.3,30.12,South,180,0.0,0.0,98,0.00,CLR,,0.00,WeatherDisplay:10.37,2013-07-08 06:44:00,
2013-07-08 02:49:00,72.9,72.3,30.12,South,180,0.0,0.0,98,0.00,CLR,,0.00,WeatherDisplay:10.37,2013-07-08 06:49:00,
2013-07-08 02:54:00,72.9,72.3,30.12,South,180,0.0,0.0,98,0.00,CLR,,0.00,WeatherDisplay:10.37,2013-07-08 06:54:00,
2013-07-08 02:59:00,72.9,72.3,30.12,South,180,0.0,0.0,98,0.00,CLR,,0.00,WeatherDisplay:10.37,2013-07-08 06:59:00,
2013-07-08 03:04:00,72.9,72.3,30.12,South,180,0.0,0.0,98,0.00,CLR,,0.00,WeatherDisplay:10.37,2013-07-08 07:04:00,
2013-07-08 03:09:00,73.0,72.4,30.12,South,180,0.0,0.0,98,0.00,CLR,,0.00,WeatherDisplay:10.37,2013-07-08 07:09:00,
2013-07-08 03:14:00,73.0,72.4,30.12,South,180,0.0,0.0,98,0.00,CLR,,0.00,WeatherDisplay:10.37,2013-07-08 07:14:00,
2013-07-08 03:19:00,73.2,72.6,30.12,South,180,0.0,0.0,98,0.00,CLR,,0.00,WeatherDisplay:10.37,2013-07-08 07:19:00,
2013-07-08 03:24:00,73.2,72.6,30.12,South,180,0.0,0.0,98,0.00,CLR,,0.00,WeatherDisplay:10.37,2013-07-08 07:24:00,
2013-07-08 03:29:00,73.2,72.6,30.12,South,180,0.0,0.0,98,0.00,CLR,,0.00,WeatherDisplay:10.37,2013-07-08 07:29:00,
2013-07-08 03:34:00,73.2,72.6,30.12,South,180,0.0,0.0,98,0.00,CLR,,0.00,WeatherDisplay:10.37,2013-07-08 07:34:00,
2013-07-08 03:39:00,73.2,72.6,30.12,South,180,0.0,0.0,98,0.00,CLR,,0.00,WeatherDisplay:10.37,2013-07-08 07:39:00,
2013-07-08 03:44:00,73.2,72.6,30.12,South,180,0.0,0.0,98,0.00,CLR,,0.00,WeatherDisplay:10.37,2013-07-08 07:44:00,
2013-07-08 03:49:00,73.2,72.6,30.12,South,180,0.0,0.0,98,0.00,CLR,,0.00,WeatherDisplay:10.37,2013-07-08 07:49:00,
2013-07-08 03:54:00,73.4,72.8,30.12,South,180,0.0,0.0,98,0.00,CLR,,0.00,WeatherDisplay:10.37,2013-07-08 07:54:00,
2013-07-08 03:59:00,73.4,72.8,30.12,South,180,0.0,0.0,98,0.00,CLR,,0.00,WeatherDisplay:10.37,2013-07-08 07:59:00,
2013-07-08 04:04:00,73.4,72.8,30.12,South,180,0.0,0.0,98,0.00,CLR,,0.00,WeatherDisplay:10.37,2013-07-08 08:04:00,
2013-07-08 04:09:00,73.4,72.8,30.12,South,180,0.0,0.0,98,0.00,CLR,,0.00,WeatherDisplay:10.37,2013-07-08 08:09:00,
2013-07-08 04:14:00,73.4,72.8,30.12,South,180,0.0,0.0,98,0.00,CLR,,0.00,WeatherDisplay:10.37,2013-07-08 08:14:00,
2013-07-08 04:19:00,73.6,73.0,30.12,South,180,0.0,0.0,98,0.00,CLR,,0.00,WeatherDisplay:10.37,2013-07-08 08:19:00,
2013-07-08 04:24:00,73.4,72.8,30.12,South,180,0.0,0.0,98,0.00,CLR,,0.00,WeatherDisplay:10.37,2013-07-08 08:24:00,
2013-07-08 04:29:00,73.2,72.6,30.12,South,180,0.0,0.0,98,0.00,CLR,,0.00,WeatherDisplay:10.37,2013-07-08 08:29:00,
2013-07-08 04:34:00,73.4,72.8,30.12,South,180,0.0,0.0,98,0.00,CLR,,0.00,WeatherDisplay:10.37,2013-07-08 08:34:00,
2013-07-08 04:39:00,73.2,72.6,30.12,South,180,0.0,0.0,98,0.00,CLR,,0.00,WeatherDisplay:10.37,2013-07-08 08:39:00,
2013-07-08 04:44:00,73.2,72.6,30.12,South,180,0.0,0.0,98,0.00,CLR,,0.00,WeatherDisplay:10.37,2013-07-08 08:44:00,
2013-07-08 04:49:00,73.2,72.6,30.12,South,180,0.0,0.0,98,0.00,CLR,,0.00,WeatherDisplay:10.37,2013-07-08 08:49:00,
2013-07-08 04:54:00,73.2,72.6,30.09,South,180,0.0,0.0,98,0.00,CLR,,0.00,WeatherDisplay:10.37,2013-07-08 08:54:00,
2013-07-08 04:59:00,73.0,72.4,30.09,South,180,0.0,0.0,98,0.00,CLR,,0.00,WeatherDisplay:10.37,2013-07-08 08:59:00,
2013-07-08 05:04:00,73.0,72.4,30.09,South,180,0.0,0.0,98,0.00,CLR,,0.00,WeatherDisplay:10.37,2013-07-08 09:04:00,
2013-07-08 05:09:00,73.2,72.6,30.09,South,180,0.0,0.0,98,0.00,CLR,,0.00,WeatherDisplay:10.37,2013-07-08 09:09:00,
2013-07-08 05:14:00,73.2,72.6,30.12,South,180,0.0,0.0,98,0.00,CLR,,0.00,WeatherDisplay:10.37,2013-07-08 09:14:00,
2013-07-08 05:19:00,73.2,72.6,30.12,South,180,0.0,0.0,98,0.00,CLR,,0.00,WeatherDisplay:10.37,2013-07-08 09:19:00,
2013-07-08 05:24:00,73.2,72.6,30.12,South,180,0.0,0.0,98,0.00,CLR,,0.00,WeatherDisplay:10.37,2013-07-08 09:24:00,
2013-07-08 05:29:00,73.2,72.6,30.12,South,180,0.0,0.0,98,0.00,CLR,,0.00,WeatherDisplay:10.37,2013-07-08 09:29:00,
2013-07-08 05:34:00,73.2,72.6,30.12,South,180,0.0,0.0,98,0.00,CLR,,0.00,WeatherDisplay:10.37,2013-07-08 09:34:00,
2013-07-08 05:39:00,73.2,72.6,30.12,South,180,0.0,0.0,98,0.00,CLR,,0.00,WeatherDisplay:10.37,2013-07-08 09:39:00,
2013-07-08 05:44:00,73.2,72.6,30.12,South,180,0.0,0.0,98,0.00,CLR,,0.00,WeatherDisplay:10.37,2013-07-08 09:44:00,
2013-07-08 05:49:00,73.2,72.6,30.12,South,180,0.0,0.0,98,0.00,CLR,,0.00,WeatherDisplay:10.37,2013-07-08 09:49:00,
2013-07-08 05:54:00,73.4,72.8,30.12,South,180,0.0,0.0,98,0.00,CLR,,0.00,WeatherDisplay:10.37,2013-07-08 09:54:00,
2013-07-08 05:59:00,73.4,72.8,30.12,South,180,0.0,0.0,98,0.00,CLR,,0.00,WeatherDisplay:10.37,2013-07-08 09:59:00,
2013-07-08 06:04:00,73.4,72.8,30.12,South,180,0.0,0.0,98,0.00,CLR,,0.00,WeatherDisplay:10.37,2013-07-08 10:04:00,
2013-07-08 06:09:00,73.2,72.6,30.12,South,180,0.0,0.0,98,0.00,CLR,,0.00,WeatherDisplay:10.37,2013-07-08 10:09:00,
2013-07-08 06:14:00,73.2,72.6,30.12,South,180,0.0,0.0,98,0.00,CLR,,0.00,WeatherDisplay:10.37,2013-07-08 10:14:00,
2013-07-08 06:19:00,73.4,72.8,30.12,South,180,0.0,0.0,98,0.00,CLR,,0.00,WeatherDisplay:10.37,2013-07-08 10:19:00,
2013-07-08 06:24:00,73.6,73.0,30.12,South,180,0.0,0.0,98,0.00,CLR,,0.00,WeatherDisplay:10.37,2013-07-08 10:24:00,
2013-07-08 06:29:00,73.4,72.8,30.12,South,180,0.0,0.0,98,0.00,CLR,,0.00,WeatherDisplay:10.37,2013-07-08 10:29:00,
2013-07-08 06:34:00,73.4,72.8,30.12,South,180,0.0,0.0,98,0.00,CLR,,0.00,WeatherDisplay:10.37,2013-07-08 10:34:00,
2013-07-08 06:39:00,73.4,72.8,30.12,South,180,0.0,0.0,98,0.00,CLR,,0.00,WeatherDisplay:10.37,2013-07-08 10:39:00,
2013-07-08 06:44:00,73.6,73.0,30.12,South,180,0.0,0.0,98,0.00,CLR,,0.00,WeatherDisplay:10.37,2013-07-08 10:44:00,
2013-07-08 06:49:00,73.6,73.0,30.12,South,180,0.0,0.0,98,0.00,CLR,,0.00,WeatherDisplay:10.37,2013-07-08 10:49:00,
2013-07-08 06:54:00,73.6,73.0,30.12,South,180,0.0,0.0,98,0.00,CLR,,0.00,WeatherDisplay:10.37,2013-07-08 10:54:00,
2013-07-08 06:59:00,73.6,73.0,30.12,South,180,0.0,0.0,98,0.00,CLR,,0.00,WeatherDisplay:10.37,2013-07-08 10:59:00,
2013-07-08 07:04:00,73.8,73.2,30.12,South,180,0.0,0.0,98,0.00,CLR,,0.00,WeatherDisplay:10.37,2013-07-08 11:04:00,
2013-07-08 07:09:00,73.8,73.2,30.12,South,180,0.0,0.0,98,0.00,CLR,,0.00,WeatherDisplay:10.37,2013-07-08 11:09:00,
2013-07-08 07:14:00,73.8,73.2,30.15,South,180,0.0,0.0,98,0.00,CLR,,0.00,WeatherDisplay:10.37,2013-07-08 11:14:00,
2013-07-08 07:19:00,73.8,73.2,30.15,South,180,0.0,0.0,98,0.00,CLR,,0.00,WeatherDisplay:10.37,2013-07-08 11:19:00,
2013-07-08 07:24:00,73.9,73.3,30.15,South,180,0.0,0.0,98,0.04,RA,,0.04,WeatherDisplay:10.37,2013-07-08 11:24:00,
2013-07-08 07:29:00,73.8,73.2,30.15,South,180,0.0,0.0,98,0.04,RA,,0.04,WeatherDisplay:10.37,2013-07-08 11:29:00,
2013-07-08 07:34:00,73.6,73.0,30.15,South,180,0.0,0.0,98,0.04,,,0.04,WeatherDisplay:10.37,2013-07-08 11:34:00,
2013-07-08 07:39:00,73.2,72.6,30.15,South,180,0.0,0.0,98,0.04,CLR,,0.04,WeatherDisplay:10.37,2013-07-08 11:39:00,
2013-07-08 07:44:00,73.0,72.4,30.15,South,180,0.0,0.0,98,0.08,RA,,0.08,WeatherDisplay:10.37,2013-07-08 11:44:00,
2013-07-08 07:49:00,72.9,72.3,30.15,South,180,0.0,0.0,98,0.08,RA,,0.08,WeatherDisplay:10.37,2013-07-08 11:49:00,
2013-07-08 07:54:00,72.7,72.1,30.15,South,180,0.0,0.0,98,0.08,,,0.08,WeatherDisplay:10.37,2013-07-08 11:54:00,
2013-07-08 07:59:00,72.7,72.1,30.15,South,180,0.0,0.0,98,0.08,CLR,,0.08,WeatherDisplay:10.37,2013-07-08 11:59:00,
2013-07-08 08:04:00,72.7,72.1,30.15,South,180,0.0,0.0,98,0.08,CLR,,0.08,WeatherDisplay:10.37,2013-07-08 12:04:00,
2013-07-08 08:09:00,73.0,72.4,30.15,South,180,0.0,0.0,98,0.08,CLR,,0.08,WeatherDisplay:10.37,2013-07-08 12:09:00,
2013-07-08 08:14:00,73.2,72.6,30.15,South,180,0.0,0.0,98,0.08,CLR,,0.08,WeatherDisplay:10.37,2013-07-08 12:14:00,
2013-07-08 08:19:00,73.2,72.6,30.15,South,180,0.0,0.0,98,0.08,CLR,,0.08,WeatherDisplay:10.37,2013-07-08 12:19:00,
2013-07-08 08:24:00,73.2,72.6,30.15,South,180,0.0,0.0,98,0.04,CLR,,0.08,WeatherDisplay:10.37,2013-07-08 12:24:00,
2013-07-08 08:29:00,73.4,72.8,30.15,South,180,0.0,0.0,98,0.04,CLR,,0.08,WeatherDisplay:10.37,2013-07-08 12:29:00,
2013-07-08 08:34:00,73.6,73.0,30.15,South,180,0.0,0.0,98,0.04,CLR,,0.08,WeatherDisplay:10.37,2013-07-08 12:34:00,
2013-07-08 08:39:00,73.8,73.2,30.15,South,180,0.0,0.0,98,0.04,CLR,,0.08,WeatherDisplay:10.37,2013-07-08 12:39:00,
2013-07-08 08:44:00,73.8,73.2,30.15,South,180,0.0,0.0,98,0.00,CLR,,0.08,WeatherDisplay:10.37,2013-07-08 12:44:00,
2013-07-08 08:49:00,73.9,73.3,30.15,South,180,0.0,0.0,98,0.00,CLR,,0.08,WeatherDisplay:10.37,2013-07-08 12:49:00,
2013-07-08 08:54:00,74.3,73.7,30.15,South,180,0.0,0.0,98,0.00,CLR,,0.08,WeatherDisplay:10.37,2013-07-08 12:54:00,
2013-07-08 08:59:00,74.1,73.5,30.15,South,180,0.0,0.0,98,0.00,CLR,,0.08,WeatherDisplay:10.37,2013-07-08 12:59:00,
2013-07-08 09:04:00,74.5,73.9,30.15,South,180,0.0,0.0,98,0.00,CLR,,0.08,WeatherDisplay:10.37,2013-07-08 13:04:00,
2013-07-08 09:09:00,74.7,74.1,30.15,South,180,0.0,0.0,98,0.00,CLR,,0.08,WeatherDisplay:10.37,2013-07-08 13:09:00,
2013-07-08 09:14:00,74.8,74.2,30.15,South,180,0.0,0.0,98,0.00,CLR,,0.08,WeatherDisplay:10.37,2013-07-08 13:14:00,
2013-07-08 09:19:00,75.2,74.6,30.15,South,180,0.0,0.0,98,0.00,CLR,,0.08,WeatherDisplay:10.37,2013-07-08 13:19:00,
2013-07-08 09:24:00,75.4,74.8,30.15,South,180,0.0,0.0,98,0.00,CLR,,0.08,WeatherDisplay:10.37,2013-07-08 13:24:00,
2013-07-08 09:29:00,75.4,74.8,30.15,South,180,0.0,0.0,98,0.00,CLR,,0.08,WeatherDisplay:10.37,2013-07-08 13:29:00,
2013-07-08 09:34:00,75.6,75.0,30.15,South,180,0.0,0.0,98,0.00,CLR,,0.08,WeatherDisplay:10.37,2013-07-08 13:34:00,
2013-07-08 09:39:00,75.7,75.1,30.15,South,180,0.0,0.0,98,0.00,CLR,,0.08,WeatherDisplay:10.37,2013-07-08 13:39:00,
2013-07-08 09:44:00,75.9,75.3,30.15,South,180,0.0,0.0,98,0.00,CLR,,0.08,WeatherDisplay:10.37,2013-07-08 13:44:00,
2013-07-08 09:49:00,76.1,75.5,30.15,South,180,0.0,0.0,98,0.00,CLR,,0.08,WeatherDisplay:10.37,2013-07-08 13:49:00,
2013-07-08 09:54:00,76.3,75.7,30.15,South,180,0.0,0.0,98,0.00,CLR,,0.08,WeatherDisplay:10.37,2013-07-08 13:54:00,
2013-07-08 09:59:00,76.3,75.7,30.15,South,180,0.0,0.0,98,0.00,CLR,,0.08,WeatherDisplay:10.37,2013-07-08 13:59:00,
2013-07-08 10:04:00,76.6,76.0,30.15,South,180,0.0,0.0,98,0.00,CLR,,0.08,WeatherDisplay:10.37,2013-07-08 14:04:00,
2013-07-08 10:09:00,76.6,76.0,30.15,South,180,0.0,0.0,98,0.00,CLR,,0.08,WeatherDisplay:10.37,2013-07-08 14:09:00,
2013-07-08 10:14:00,76.8,76.2,30.15,South,180,0.0,0.0,98,0.00,CLR,,0.08,WeatherDisplay:10.37,2013-07-08 14:14:00,
2013-07-08 10:19:00,77.4,76.4,30.15,South,180,0.0,0.0,97,0.00,CLR,,0.08,WeatherDisplay:10.37,2013-07-08 14:19:00,
2013-07-08 10:24:00,77.5,76.6,30.15,South,180,0.0,0.0,97,0.00,CLR,,0.08,WeatherDisplay:10.37,2013-07-08 14:24:00,
2013-07-08 10:29:00,78.6,77.7,30.15,South,180,0.0,0.0,97,0.00,CLR,,0.08,WeatherDisplay:10.37,2013-07-08 14:29:00,
2013-07-08 10:34:00,79.3,78.1,30.15,South,180,0.0,0.0,96,0.00,CLR,,0.08,WeatherDisplay:10.37,2013-07-08 14:34:00,
2013-07-08 10:39:00,80.1,78.8,30.15,South,180,0.0,0.0,96,0.00,CLR,,0.08,WeatherDisplay:10.37,2013-07-08 14:39:00,
2013-07-08 10:44:00,80.6,79.0,30.15,South,180,0.0,0.0,95,0.00,CLR,,0.08,WeatherDisplay:10.37,2013-07-08 14:44:00,
2013-07-08 10:49:00,80.4,78.2,30.15,South,180,0.0,0.0,93,0.00,CLR,,0.08,WeatherDisplay:10.37,2013-07-08 14:49:00,
2013-07-08 10:54:00,80.2,77.0,30.15,South,180,0.0,0.0,90,0.00,CLR,,0.08,WeatherDisplay:10.37,2013-07-08 14:54:00,
2013-07-08 10:59:00,80.1,75.5,30.15,South,180,0.0,0.0,86,0.00,CLR,,0.08,WeatherDisplay:10.37,2013-07-08 14:59:00,
2013-07-08 11:04:00,80.1,74.4,30.15,South,180,0.0,0.0,83,0.00,CLR,,0.08,WeatherDisplay:10.37,2013-07-08 15:04:00,
2013-07-08 11:09:00,79.9,74.3,30.15,South,180,0.0,0.0,83,0.00,CLR,,0.08,WeatherDisplay:10.37,2013-07-08 15:09:00,
2013-07-08 11:14:00,80.1,74.1,30.15,South,180,0.0,0.0,82,0.00,CLR,,0.08,WeatherDisplay:10.37,2013-07-08 15:14:00,
2013-07-08 11:19:00,79.7,73.7,30.15,South,180,0.0,0.0,82,0.00,CLR,,0.08,WeatherDisplay:10.37,2013-07-08 15:19:00,
2013-07-08 11:24:00,79.9,73.9,30.15,South,180,0.0,0.0,82,0.00,CLR,,0.08,WeatherDisplay:10.37,2013-07-08 15:24:00,
2013-07-08 11:29:00,80.1,74.1,30.15,South,180,0.0,0.0,82,0.00,CLR,,0.08,WeatherDisplay:10.37,2013-07-08 15:29:00,
2013-07-08 11:34:00,80.1,74.1,30.15,South,180,0.0,0.0,82,0.00,CLR,,0.08,WeatherDisplay:10.37,2013-07-08 15:34:00,
2013-07-08 11:39:00,80.2,73.9,30.15,South,180,0.0,0.0,81,0.00,CLR,,0.08,WeatherDisplay:10.37,2013-07-08 15:39:00,
2013-07-08 11:44:00,80.2,74.2,30.15,South,180,0.0,0.0,82,0.00,CLR,,0.08,WeatherDisplay:10.37,2013-07-08 15:44:00,
2013-07-08 11:49:00,80.4,74.1,30.15,South,180,0.0,0.0,81,0.00,CLR,,0.08,WeatherDisplay:10.37,2013-07-08 15:49:00,
2013-07-08 11:54:00,80.6,73.5,30.15,South,180,0.0,0.0,79,0.00,CLR,,0.08,WeatherDisplay:10.37,2013-07-08 15:54:00,
2013-07-08 11:59:00,80.8,73.7,30.15,South,180,0.0,0.0,79,0.00,CLR,,0.08,WeatherDisplay:10.37,2013-07-08 15:59:00,
2013-07-08 12:04:00,81.5,72.8,30.15,South,180,0.0,0.0,75,0.00,CLR,,0.08,WeatherDisplay:10.37,2013-07-08 16:04:00,
2013-07-08 12:09:00,82.4,72.9,30.15,South,180,0.0,0.0,73,0.00,CLR,,0.08,WeatherDisplay:10.37,2013-07-08 16:09:00,
2013-07-08 12:14:00,83.1,71.9,30.15,South,180,0.0,0.0,69,0.00,CLR,,0.08,WeatherDisplay:10.37,2013-07-08 16:14:00,
2013-07-08 12:19:00,83.8,71.3,30.15,South,180,0.0,0.0,66,0.00,CLR,,0.08,WeatherDisplay:10.37,2013-07-08 16:19:00,
2013-07-08 12:24:00,84.2,71.2,30.15,South,180,0.0,0.0,65,0.00,CLR,,0.08,WeatherDisplay:10.37,2013-07-08 16:24:00,
2013-07-08 12:29:00,85.1,71.5,30.15,South,180,0.0,0.0,64,0.00,CLR,,0.08,WeatherDisplay:10.37,2013-07-08 16:29:00,
2013-07-08 12:34:00,85.8,70.3,30.15,South,180,0.0,0.0,60,0.00,CLR,,0.08,WeatherDisplay:10.37,2013-07-08 16:34:00,
2013-07-08 12:39:00,85.8,68.3,30.15,South,180,0.0,0.0,56,0.00,CLR,,0.08,WeatherDisplay:10.37,2013-07-08 16:39:00,
2013-07-08 12:44:00,86.9,69.8,30.15,South,180,0.0,0.0,57,0.00,CLR,,0.08,WeatherDisplay:10.37,2013-07-08 16:44:00,
2013-07-08 12:49:00,87.6,69.5,30.15,South,180,0.0,0.0,55,0.00,CLR,,0.08,WeatherDisplay:10.37,2013-07-08 16:49:00,
2013-07-08 12:54:00,88.9,67.8,30.15,South,180,0.0,0.0,50,0.00,CLR,,0.08,WeatherDisplay:10.37,2013-07-08 16:54:00,
2013-07-08 12:59:00,88.9,64.8,30.15,South,180,0.0,0.0,45,0.00,CLR,,0.08,WeatherDisplay:10.37,2013-07-08 16:59:00,
2013-07-08 13:04:00,89.2,64.5,30.15,South,180,0.0,0.0,44,0.00,CLR,,0.08,WeatherDisplay:10.37,2013-07-08 17:04:00,
2013-07-08 13:09:00,88.7,65.3,30.15,South,180,0.0,0.0,46,0.00,CLR,,0.08,WeatherDisplay:10.37,2013-07-08 17:09:00,
2013-07-08 13:14:00,88.7,67.7,30.15,South,180,0.0,0.0,50,0.00,CLR,,0.08,WeatherDisplay:10.37,2013-07-08 17:14:00,
2013-07-08 13:20:00,88.9,66.7,30.15,South,180,0.0,0.0,48,0.00,CLR,,0.08,WeatherDisplay:10.37,2013-07-08 17:20:00,
2013-07-08 13:25:00,89.6,66.7,30.15,South,180,0.0,0.0,47,0.00,CLR,,0.08,WeatherDisplay:10.37,2013-07-08 17:25:00,
2013-07-08 13:30:00,90.5,66.9,30.15,South,180,0.0,0.0,46,0.00,CLR,,0.08,WeatherDisplay:10.37,2013-07-08 17:30:00,
2013-07-08 13:35:00,90.7,65.8,30.15,South,180,0.0,0.0,44,0.00,CLR,,0.08,WeatherDisplay:10.37,2013-07-08 17:35:00,
2013-07-08 13:40:00,90.0,64.5,30.15,South,180,0.0,0.0,43,0.00,CLR,,0.08,WeatherDisplay:10.37,2013-07-08 17:40:00,
2013-07-08 13:45:00,88.9,64.8,30.15,South,180,0.0,0.0,45,0.00,CLR,,0.08,WeatherDisplay:10.37,2013-07-08 17:45:00,
2013-07-08 13:51:00,89.4,66.5,30.15,South,180,0.0,0.0,47,0.00,CLR,,0.08,WeatherDisplay:10.37,2013-07-08 17:51:00,
2013-07-08 13:57:00,89.2,67.6,30.12,South,180,0.0,0.0,49,0.00,CLR,,0.08,WeatherDisplay:10.37,2013-07-08 17:57:00,
2013-07-08 14:02:00,89.1,65.0,30.12,South,180,0.0,0.0,45,0.00,CLR,,0.08,WeatherDisplay:10.37,2013-07-08 18:02:00,
2013-07-08 14:07:00,88.5,65.7,30.12,South,180,0.0,0.0,47,0.00,CLR,,0.08,WeatherDisplay:10.37,2013-07-08 18:07:00,
2013-07-08 14:12:00,88.2,66.6,30.12,South,180,0.0,0.0,49,0.00,CLR,,0.08,WeatherDisplay:10.37,2013-07-08 18:12:00,
2013-07-08 14:17:00,88.5,66.9,30.12,South,180,0.0,0.0,49,0.00,CLR,,0.08,WeatherDisplay:10.37,2013-07-08 18:17:00,
2013-07-08 14:22:00,89.4,65.9,30.12,South,180,0.0,0.0,46,0.00,CLR,,0.08,WeatherDisplay:10.37,2013-07-08 18:22:00,
2013-07-08 14:27:00,90.0,63.8,30.12,South,180,0.0,0.0,42,0.00,CLR,,0.08,WeatherDisplay:10.37,2013-07-08 18:27:00,
2013-07-08 14:32:00,90.5,63.6,30.12,South,180,0.0,0.0,41,0.00,CLR,,0.08,WeatherDisplay:10.37,2013-07-08 18:32:00,
2013-07-08 14:37:00,91.2,62.1,30.12,South,180,0.0,0.0,38,0.00,CLR,,0.08,WeatherDisplay:10.37,2013-07-08 18:37:00,
2013-07-08 14:43:00,91.4,64.4,30.12,South,180,0.0,0.0,41,0.00,CLR,,0.08,WeatherDisplay:10.37,2013-07-08 18:43:00,
2013-07-08 14:48:00,90.3,65.4,30.12,South,180,0.0,0.0,44,0.00,CLR,,0.08,WeatherDisplay:10.37,2013-07-08 18:48:00,
2013-07-08 14:53:00,89.2,65.1,30.12,South,180,0.0,0.0,45,0.00,CLR,,0.08,WeatherDisplay:10.37,2013-07-08 18:53:00,
2013-07-08 14:59:00,88.3,65.6,30.12,South,180,0.0,0.0,47,0.00,CLR,,0.08,WeatherDisplay:10.37,2013-07-08 18:59:00,
2013-07-08 15:04:00,88.2,64.1,30.12,South,180,0.0,0.0,45,0.00,CLR,,0.08,WeatherDisplay:10.37,2013-07-08 19:04:00,
2013-07-08 15:09:00,89.2,66.4,30.12,South,180,0.0,0.0,47,0.00,CLR,,0.08,WeatherDisplay:10.37,2013-07-08 19:09:00,
2013-07-08 15:15:00,90.7,65.8,30.12,South,180,0.0,0.0,44,0.00,CLR,,0.08,WeatherDisplay:10.37,2013-07-08 19:15:00,
2013-07-08 15:20:00,91.6,62.4,30.12,South,180,0.0,0.0,38,0.00,CLR,,0.08,WeatherDisplay:10.37,2013-07-08 19:20:00,
2013-07-08 15:25:00,92.1,61.3,30.12,South,180,0.0,0.0,36,0.00,CLR,,0.08,WeatherDisplay:10.37,2013-07-08 19:25:00,
2013-07-08 15:30:00,92.3,63.0,30.12,South,180,0.0,0.0,38,0.00,CLR,,0.08,WeatherDisplay:10.37,2013-07-08 19:30:00,
2013-07-08 15:35:00,92.5,63.2,30.12,South,180,0.0,0.0,38,0.00,CLR,,0.08,WeatherDisplay:10.37,2013-07-08 19:35:00,
2013-07-08 15:40:00,93.6,59.3,30.12,South,180,0.0,0.0,32,0.00,CLR,,0.08,WeatherDisplay:10.37,2013-07-08 19:40:00,
2013-07-08 15:48:00,91.9,61.9,30.12,South,180,0.0,0.0,37,0.00,CLR,,0.08,WeatherDisplay:10.37,2013-07-08 19:48:00,
2013-07-08 15:53:00,92.7,63.3,30.12,South,180,0.0,0.0,38,0.00,CLR,,0.08,WeatherDisplay:10.37,2013-07-08 19:53:00,
2013-07-08 15:58:00,93.0,64.4,30.09,South,180,0.0,0.0,39,0.00,CLR,,0.08,WeatherDisplay:10.37,2013-07-08 19:58:00,
2013-07-08 16:03:00,92.8,62.7,30.09,South,180,0.0,0.0,37,0.00,CLR,,0.08,WeatherDisplay:10.37,2013-07-08 20:03:00,
2013-07-08 16:09:00,92.5,63.2,30.09,South,180,0.0,0.0,38,0.00,CLR,,0.08,WeatherDisplay:10.37,2013-07-08 20:09:00,
2013-07-08 16:14:00,91.9,63.4,30.09,South,180,0.0,0.0,39,0.00,CLR,,0.08,WeatherDisplay:10.37,2013-07-08 20:14:00,
2013-07-08 16:19:00,92.8,65.7,30.09,South,180,0.0,0.0,41,0.00,CLR,,0.08,WeatherDisplay:10.37,2013-07-08 20:19:00,
2013-07-08 16:25:00,93.0,64.4,30.09,South,180,0.0,0.0,39,0.00,CLR,,0.08,WeatherDisplay:10.37,2013-07-08 20:25:00,
2013-07-08 16:33:00,93.0,63.7,30.09,South,180,0.0,0.0,38,0.00,CLR,,0.08,WeatherDisplay:10.37,2013-07-08 20:33:00,
2013-07-08 16:39:00,93.2,63.8,30.09,South,180,0.0,0.0,38,0.00,CLR,,0.08,WeatherDisplay:10.37,2013-07-08 20:39:00,
2013-07-08 16:44:00,92.7,62.6,30.09,South,180,0.0,0.0,37,0.00,CLR,,0.08,WeatherDisplay:10.37,2013-07-08 20:44:00,
2013-07-08 16:50:00,92.8,63.5,30.09,South,180,0.0,0.0,38,0.00,CLR,,0.08,WeatherDisplay:10.37,2013-07-08 20:50:00,
2013-07-08 16:55:00,93.2,62.3,30.09,South,180,0.0,0.0,36,0.00,CLR,,0.08,WeatherDisplay:10.37,2013-07-08 20:55:00,
2013-07-08 17:00:00,92.1,62.9,30.09,South,180,0.0,0.0,38,0.00,CLR,,0.08,WeatherDisplay:10.37,2013-07-08 21:00:00,
2013-07-08 17:06:00,90.1,62.6,30.09,South,180,0.0,0.0,40,0.00,CLR,,0.08,WeatherDisplay:10.37,2013-07-08 21:06:00,
2013-07-08 17:11:00,89.4,64.0,30.09,South,180,0.0,0.0,43,0.00,CLR,,0.08,WeatherDisplay:10.37,2013-07-08 21:11:00,
2013-07-08 17:17:00,90.3,66.1,30.09,South,180,0.0,0.0,45,0.00,CLR,,0.08,WeatherDisplay:10.37,2013-07-08 21:17:00,
2013-07-08 17:23:00,90.7,65.8,30.09,South,180,0.0,0.0,44,0.00,CLR,,0.08,WeatherDisplay:10.37,2013-07-08 21:23:00,
2013-07-08 17:28:00,91.6,63.8,30.06,South,180,0.0,0.0,40,0.00,CLR,,0.08,WeatherDisplay:10.37,2013-07-08 21:28:00,
2013-07-08 17:33:00,91.0,64.8,30.06,South,180,0.0,0.0,42,0.00,CLR,,0.08,WeatherDisplay:10.37,2013-07-08 21:33:00,
2013-07-08 17:38:00,90.5,64.9,30.06,South,180,0.0,0.0,43,0.00,CLR,,0.08,WeatherDisplay:10.37,2013-07-08 21:38:00,
2013-07-08 17:44:00,89.6,67.9,30.09,South,180,0.0,0.0,49,0.00,CLR,,0.08,WeatherDisplay:10.37,2013-07-08 21:44:00,
2013-07-08 17:50:00,88.3,67.9,30.09,South,180,0.0,0.0,51,0.00,CLR,,0.08,WeatherDisplay:10.37,2013-07-08 21:50:00,
2013-07-08 17:55:00,87.8,69.1,30.09,South,180,0.0,0.0,54,0.00,CLR,,0.08,WeatherDisplay:10.37,2013-07-08 21:55:00,
2013-07-08 18:01:00,86.9,70.3,30.09,South,180,0.0,0.0,58,0.00,CLR,,0.08,WeatherDisplay:10.37,2013-07-08 22:01:00,
2013-07-08 18:06:00,86.2,68.6,30.09,South,180,0.0,0.0,56,0.00,CLR,,0.08,WeatherDisplay:10.37,2013-07-08 22:06:00,
2013-07-08 18:11:00,86.2,70.2,30.09,South,180,0.0,0.0,59,0.00,CLR,,0.08,WeatherDisplay:10.37,2013-07-08 22:11:00,
2013-07-08 18:17:00,85.8,70.8,30.09,South,180,0.0,0.0,61,0.00,CLR,,0.08,WeatherDisplay:10.37,2013-07-08 22:17:00,
2013-07-08 18:22:00,85.6,70.6,30.09,South,180,0.0,0.0,61,0.00,CLR,,0.08,WeatherDisplay:10.37,2013-07-08 22:22:00,
2013-07-08 18:28:00,85.3,70.8,30.09,South,180,0.0,0.0,62,0.00,CLR,,0.08,WeatherDisplay:10.37,2013-07-08 22:28:00,
2013-07-08 18:34:00,84.9,70.0,30.09,South,180,0.0,0.0,61,0.00,CLR,,0.08,WeatherDisplay:10.37,2013-07-08 22:34:00,
2013-07-08 18:39:00,84.6,69.6,30.06,South,180,0.0,0.0,61,0.00,CLR,,0.08,WeatherDisplay:10.37,2013-07-08 22:39:00,
2013-07-08 18:44:00,84.0,70.1,30.06,South,180,0.0,0.0,63,0.00,CLR,,0.08,WeatherDisplay:10.37,2013-07-08 22:44:00,
2013-07-08 18:49:00,83.8,70.4,30.06,South,180,0.0,0.0,64,0.00,CLR,,0.08,WeatherDisplay:10.37,2013-07-08 22:49:00,
2013-07-08 18:54:00,83.7,71.1,30.09,South,180,0.0,0.0,66,0.00,CLR,,0.08,WeatherDisplay:10.37,2013-07-08 22:54:00,
2013-07-08 19:00:00,83.5,71.8,30.09,South,180,0.0,0.0,68,0.00,CLR,,0.08,WeatherDisplay:10.37,2013-07-08 23:00:00,
2013-07-08 19:05:00,83.3,71.6,30.09,South,180,0.0,0.0,68,0.00,CLR,,0.08,WeatherDisplay:10.37,2013-07-08 23:05:00,
2013-07-08 19:10:00,82.9,71.7,30.09,South,180,0.0,0.0,69,0.00,CLR,,0.08,WeatherDisplay:10.37,2013-07-08 23:10:00,
2013-07-08 19:15:00,82.8,72.0,30.09,South,180,0.0,0.0,70,0.00,CLR,,0.08,WeatherDisplay:10.37,2013-07-08 23:15:00,
2013-07-08 19:20:00,82.6,72.2,30.09,South,180,0.0,0.0,71,0.00,CLR,,0.08,WeatherDisplay:10.37,2013-07-08 23:20:00,
2013-07-08 19:25:00,82.4,72.5,30.09,South,180,0.0,0.0,72,0.00,CLR,,0.08,WeatherDisplay:10.37,2013-07-08 23:25:00,
2013-07-08 19:31:00,82.2,72.3,30.09,South,180,0.0,0.0,72,0.00,CLR,,0.08,WeatherDisplay:10.37,2013-07-08 23:31:00,
2013-07-08 19:36:00,82.0,72.5,30.09,South,180,0.0,0.0,73,0.00,CLR,,0.08,WeatherDisplay:10.37,2013-07-08 23:36:00,
2013-07-08 19:41:00,81.9,71.9,30.09,South,180,0.0,0.0,72,0.00,CLR,,0.08,WeatherDisplay:10.37,2013-07-08 23:41:00,
2013-07-08 19:47:00,81.7,72.2,30.09,South,180,0.0,0.0,73,0.00,CLR,,0.08,WeatherDisplay:10.37,2013-07-08 23:47:00,
2013-07-08 19:52:00,81.3,72.6,30.09,South,180,0.0,0.0,75,0.00,CLR,,0.08,WeatherDisplay:10.37,2013-07-08 23:52:00,
2013-07-08 19:57:00,80.8,72.1,30.09,South,180,0.0,0.0,75,0.00,CLR,,0.08,WeatherDisplay:10.37,2013-07-08 23:57:00,
2013-07-08 20:02:00,80.8,72.1,30.09,South,180,0.0,0.0,75,0.00,CLR,,0.08,WeatherDisplay:10.37,2013-07-09 00:02:00,
2013-07-08 20:08:00,80.8,71.3,30.09,South,180,0.0,0.0,73,0.00,CLR,,0.08,WeatherDisplay:10.37,2013-07-09 00:08:00,
2013-07-08 20:13:00,80.4,71.0,30.12,South,180,0.0,0.0,73,0.00,CLR,,0.08,WeatherDisplay:10.37,2013-07-09 00:13:00,
2013-07-08 20:18:00,80.2,70.8,30.12,South,180,0.0,0.0,73,0.00,CLR,,0.08,WeatherDisplay:10.37,2013-07-09 00:18:00,
2013-07-08 20:23:00,80.2,71.6,30.12,South,180,0.0,0.0,75,0.00,CLR,,0.08,WeatherDisplay:10.37,2013-07-09 00:23:00,
2013-07-08 20:28:00,80.1,71.8,30.12,South,180,0.0,0.0,76,0.00,CLR,,0.08,WeatherDisplay:10.37,2013-07-09 00:28:00,
2013-07-08 20:34:00,79.7,71.8,30.12,South,180,0.0,0.0,77,0.00,CLR,,0.08,WeatherDisplay:10.37,2013-07-09 00:34:00,
2013-07-08 20:39:00,79.5,71.7,30.12,South,180,0.0,0.0,77,0.00,CLR,,0.08,WeatherDisplay:10.37,2013-07-09 00:39:00,
2013-07-08 20:45:00,79.2,71.7,30.12,South,180,0.0,0.0,78,0.00,CLR,,0.08,WeatherDisplay:10.37,2013-07-09 00:45:00,
2013-07-08 20:50:00,79.0,71.5,30.12,South,180,0.0,0.0,78,0.00,CLR,,0.08,WeatherDisplay:10.37,2013-07-09 00:50:00,
2013-07-08 20:55:00,79.0,71.2,30.12,South,180,0.0,0.0,77,0.00,CLR,,0.08,WeatherDisplay:10.37,2013-07-09 00:55:00,
2013-07-08 21:00:00,78.8,71.4,30.12,South,180,0.0,0.0,78,0.00,CLR,,0.08,WeatherDisplay:10.37,2013-07-09 01:00:00,
2013-07-08 21:05:00,78.6,71.2,30.12,South,180,0.0,0.0,78,0.00,CLR,,0.08,WeatherDisplay:10.37,2013-07-09 01:05:00,
2013-07-08 21:10:00,78.3,71.2,30.12,SSW,202,0.0,0.0,79,0.00,CLR,,0.08,WeatherDisplay:10.37,2013-07-09 01:10:00,
2013-07-08 21:15:00,77.9,70.1,30.12,South,180,0.0,0.0,77,0.00,CLR,,0.08,WeatherDisplay:10.37,2013-07-09 01:15:00,
2013-07-08 21:21:00,77.9,70.1,30.12,South,180,0.0,0.0,77,0.00,CLR,,0.08,WeatherDisplay:10.37,2013-07-09 01:21:00,
2013-07-08 21:26:00,77.5,69.4,30.12,SSW,202,0.0,0.0,76,0.00,CLR,,0.08,WeatherDisplay:10.37,2013-07-09 01:26:00,
2013-07-08 21:31:00,77.5,69.4,30.12,SSW,202,0.0,0.0,76,0.00,CLR,,0.08,WeatherDisplay:10.37,2013-07-09 01:31:00,
2013-07-08 21:36:00,77.4,69.2,30.12,SSW,202,0.0,0.0,76,0.00,CLR,,0.08,WeatherDisplay:10.37,2013-07-09 01:36:00,
2013-07-08 21:41:00,77.2,69.4,30.12,SSW,202,0.0,0.0,77,0.00,CLR,,0.08,WeatherDisplay:10.37,2013-07-09 01:41:00,
2013-07-08 21:47:00,77.0,69.2,30.12,SSW,202,0.0,0.0,77,0.00,CLR,,0.08,WeatherDisplay:10.37,2013-07-09 01:47:00,
2013-07-08 21:52:00,77.0,69.6,30.12,SSW,202,0.0,0.0,78,0.00,CLR,,0.08,WeatherDisplay:10.37,2013-07-09 01:52:00,
2013-07-08 21:57:00,76.6,69.6,30.12,SSW,202,0.0,0.0,79,0.00,CLR,,0.08,WeatherDisplay:10.37,2013-07-09 01:57:00,
2013-07-08 22:03:00,76.5,69.5,30.12,SSW,202,0.0,0.0,79,0.00,CLR,,0.08,WeatherDisplay:10.37,2013-07-09 02:03:00,
2013-07-08 22:09:00,76.3,69.7,30.12,SSW,202,0.0,0.0,80,0.00,CLR,,0.08,WeatherDisplay:10.37,2013-07-09 02:09:00,
2013-07-08 22:14:00,75.9,69.3,30.12,SSW,202,0.0,0.0,80,0.00,CLR,,0.08,WeatherDisplay:10.37,2013-07-09 02:14:00,
2013-07-08 22:19:00,75.9,69.7,30.12,SSW,202,0.0,0.0,81,0.00,CLR,,0.08,WeatherDisplay:10.37,2013-07-09 02:19:00,
2013-07-08 22:24:00,75.6,69.7,30.12,SSW,202,0.0,0.0,82,0.00,CLR,,0.08,WeatherDisplay:10.37,2013-07-09 02:24:00,
2013-07-08 22:31:00,75.4,69.9,30.12,SSW,202,0.0,0.0,83,0.00,CLR,,0.08,WeatherDisplay:10.37,2013-07-09 02:31:00,
2013-07-08 22:36:00,75.4,70.2,30.12,SSW,202,0.0,0.0,84,0.00,CLR,,0.08,WeatherDisplay:10.37,2013-07-09 02:36:00,
2013-07-08 22:42:00,75.2,70.4,30.12,SSW,202,0.0,0.0,85,0.00,CLR,,0.08,WeatherDisplay:10.37,2013-07-09 02:42:00,
2013-07-08 22:48:00,75.0,70.5,30.12,SSW,202,0.0,0.0,86,0.00,CLR,,0.08,WeatherDisplay:10.37,2013-07-09 02:48:00,
2013-07-08 22:53:00,74.8,70.4,30.12,SSW,202,0.0,0.0,86,0.00,CLR,,0.08,WeatherDisplay:10.37,2013-07-09 02:53:00,
2013-07-08 22:58:00,74.8,70.4,30.12,SSW,202,0.0,0.0,86,0.00,CLR,,0.08,WeatherDisplay:10.37,2013-07-09 02:58:00,
2013-07-08 23:03:00,74.7,70.5,30.12,SSW,202,0.0,0.0,87,0.00,CLR,,0.08,WeatherDisplay:10.37,2013-07-09 03:03:00,
2013-07-08 23:08:00,74.7,70.5,30.12,SSW,202,0.0,0.0,87,0.00,CLR,,0.08,WeatherDisplay:10.37,2013-07-09 03:08:00,
2013-07-08 23:13:00,74.5,70.4,30.12,SSW,202,0.0,0.0,87,0.00,CLR,,0.08,WeatherDisplay:10.37,2013-07-09 03:13:00,
2013-07-08 23:19:00,74.3,70.5,30.12,SSW,202,0.0,0.0,88,0.00,CLR,,0.08,WeatherDisplay:10.37,2013-07-09 03:19:00,
2013-07-08 23:26:00,74.1,70.3,30.15,SSW,202,0.0,0.0,88,0.00,CLR,,0.08,WeatherDisplay:10.37,2013-07-09 03:26:00,
2013-07-08 23:33:00,73.9,70.2,30.15,SSW,202,0.0,0.0,88,0.00,CLR,,0.08,WeatherDisplay:10.37,2013-07-09 03:33:00,
2013-07-08 23:38:00,73.9,70.5,30.15,SSW,202,0.0,0.0,89,0.00,CLR,,0.08,WeatherDisplay:10.37,2013-07-09 03:38:00,
2013-07-08 23:44:00,73.9,70.5,30.15,SSW,202,0.0,0.0,89,0.00,CLR,,0.08,WeatherDisplay:10.37,2013-07-09 03:44:00,
2013-07-08 23:49:00,73.8,70.3,30.15,SSW,202,0.0,0.0,89,0.00,CLR,,0.08,WeatherDisplay:10.37,2013-07-09 03:49:00,
2013-07-08 23:55:00,73.8,70.3,30.12,SSW,202,0.0,0.0,89,0.00,CLR,,0.08,WeatherDisplay:10.37,2013-07-09 03:55:00,